TimeCST,TemperatureF,Dew PointF,Humidity,Sea Level PressureIn,VisibilityMPH,Wind Direction,Wind SpeedMPH,Gust SpeedMPH,PrecipitationIn,Events,Conditions,WindDirDegrees,DateUTC
12:53 AM,15.1,12.0,88,30.10,8.0,ESE,5.8,-,N/A,,Clear,120,2013-02-06 06:53:00
1:53 AM,18.0,14.0,84,30.09,8.0,SE,6.9,-,N/A,,Clear,140,2013-02-06 07:53:00
2:53 AM,17.1,12.9,84,30.12,8.0,ESE,4.6,-,N/A,,Scattered Clouds,120,2013-02-06 08:53:00
3:53 AM,19.0,15.1,85,30.09,9.0,SE,6.9,-,N/A,,Overcast,130,2013-02-06 09:53:00
4:50 AM,21.2,15.8,80,30.03,10.0,SE,8.1,-,N/A,,Overcast,140,2013-02-06 10:50:00
4:53 AM,21.0,16.0,81,30.08,10.0,SE,8.1,-,N/A,,Overcast,130,2013-02-06 10:53:00
5:07 AM,21.2,17.6,86,30.03,10.0,SE,8.1,-,N/A,,Overcast,130,2013-02-06 11:07:00
5:53 AM,21.9,18.0,85,30.08,9.0,SE,8.1,-,N/A,,Overcast,130,2013-02-06 11:53:00
6:17 AM,23.0,19.4,86,30.03,8.0,SE,6.9,-,N/A,,Overcast,140,2013-02-06 12:17:00
6:53 AM,24.1,19.9,84,30.06,7.0,SE,11.5,-,N/A,,Scattered Clouds,130,2013-02-06 12:53:00
7:53 AM,24.1,21.0,88,30.03,5.0,SE,13.8,-,N/A,,Clear,140,2013-02-06 13:53:00
8:53 AM,27.0,23.0,85,30.01,7.0,SE,15.0,-,N/A,,Partly Cloudy,140,2013-02-06 14:53:00
9:53 AM,34.0,28.0,79,30.00,8.0,SSE,15.0,21.9,N/A,,Clear,160,2013-02-06 15:53:00
10:53 AM,35.1,28.0,76,29.98,9.0,SSE,18.4,28.8,N/A,,Clear,160,2013-02-06 16:53:00
11:53 AM,37.9,30.0,73,29.95,10.0,South,18.4,-,N/A,,Partly Cloudy,170,2013-02-06 17:53:00
12:53 PM,44.1,30.9,60,29.91,10.0,South,21.9,27.6,N/A,,Clear,190,2013-02-06 18:53:00
1:53 PM,44.1,30.9,60,29.88,10.0,South,19.6,-,N/A,,Mostly Cloudy,190,2013-02-06 19:53:00
2:53 PM,44.1,30.9,60,29.87,10.0,SSW,16.1,-,N/A,,Mostly Cloudy,200,2013-02-06 20:53:00
3:53 PM,45.0,33.1,63,29.88,10.0,West,5.8,-,N/A,,Scattered Clouds,260,2013-02-06 21:53:00
4:53 PM,43.0,33.1,68,29.88,10.0,SSW,5.8,-,N/A,,Overcast,210,2013-02-06 22:53:00
5:53 PM,39.0,32.0,76,29.90,10.0,South,5.8,-,N/A,,Scattered Clouds,180,2013-02-06 23:53:00
6:53 PM,39.9,33.1,77,29.92,10.0,South,6.9,-,N/A,,Overcast,190,2013-02-07 00:53:00
7:53 PM,37.9,30.9,76,29.94,10.0,Calm,Calm,-,N/A,,Clear,0,2013-02-07 01:53:00
8:53 PM,36.0,30.9,82,29.93,10.0,Calm,Calm,-,N/A,,Clear,0,2013-02-07 02:53:00
9:53 PM,37.0,30.9,79,29.94,10.0,SW,3.5,-,N/A,,Clear,230,2013-02-07 03:53:00
10:53 PM,35.1,30.0,82,29.94,10.0,NW,3.5,-,N/A,,Partly Cloudy,320,2013-02-07 04:53:00